Find Starlink 31844

NORAD ID: 60583 Int'l Des: 2024-150 Owner: SPXS Country: US Constellation: starlink operational
LEOCIRCULAR

Current View

Loading 3D Globe...

About Starlink 31844

Starlink 31844 (NORAD 60583) is a starlink constellation satellite (v2 mini) launched Aug 20, 2024 by SPXS of US. It operates in LEO, CIRCULAR orbit with a mass of 730.00 kg.

About Starlink 31844

Description loading...

Upcoming Passes

Passes for default location (London). Set your location on the main map for personalized predictions.

Altitude History

Loading altitude history...

Two-Line Element Set

1 60583U 24150A 26175.27602300 .00000333 00000-0 22485-4 0 9999
2 60583 53.1593 170.9970 0000802 70.7628 289.3460 15.31705034104379
Epoch: Jun 24, 2026 • Age: 16 hours

Current Status

Altitude 472.4 km
Velocity 7.63 km/s
Sub-Earth Point -5.26°S, 82.89°W
Launch Date Aug 20, 2024
Age 1.8 years
Type internet

Technical Details

Classification Payload
Mass 730.00 kg
Dry Mass 700.00 kg
Total Mass 730.00 kg
Length 0.30 m
Diameter 4.10 m
Span 29.00 m
Shape Box + pan
Manufacturer SPXS
Bus Type Starlink V2M
Phase Status In Orbit
Owner/State SPXS/US

Most Searched